Location: Newark
(45.4422°N, 16.2769°E)
Time: 20:04:17
(UTC+00:00)

Courier 1B Rocket - Pass Details

Date: 08 December 2019
Orbit: 920 x 1202 km, 28.2° (Epoch: 28 January)

Event Time Altitude Azimuth Distance (km) Brightness Sun altitude
Rises 06:32:34 0° 222° (SW) 3,701 7.9 0.8°
Reaches altitude 10° 06:36:46 10° 198° (SSW) 2,697 7.6 1.4°
Maximum altitude 06:39:50 14° 170° (S) 2,397 7.8 1.8°
Drops below altitude 10° 06:42:50 10° 141° (SE) 2,636 9.2 2.3°
Sets 06:46:50 0° 116° (ESE) 3,556 10.2 2.8°
